• In Kazakhstan
  • List of Countries
  • For 7 days
  • Water Temperature
  • Satellite Maps
  • Weather Map
  • News
  • Weather Widgets
  • user-avatar
    Login

    Hourly Weather Igls

    Today, 22 October, Sunday

    Time Temperature Precipitation Wind Pressure Humidity
    00:00 +10°C° 0.1 mm 1 mps 684 mmHg 78%
    01:00 +10°C° 0.1 mm 1 mps 685 mmHg 81%
    02:00 +9°C° 0.7 mm 1 mps 684 mmHg 83%
    03:00 +9°C° 0.7 mm 1 mps 684 mmHg 86%
    04:00 +9°C° 0.7 mm 1 mps 684 mmHg 89%
    05:00 +8°C° 1 mm 2 mps 684 mmHg 90%
    06:00 +8°C° 1 mm 2 mps 684 mmHg 92%
    07:00 +7°C° 1 mm 2 mps 684 mmHg 94%
    08:00 +7°C° 1.3 mm 2 mps 684 mmHg 93%
    09:00 +7°C° 1.3 mm 2 mps 684 mmHg 92%
    10:00 +7°C° 1.3 mm 2 mps 684 mmHg 92%
    11:00 +7°C° 1.1 mm 2 mps 683 mmHg 91%
    12:00 +7°C° 1.1 mm 2 mps 683 mmHg 90%
    13:00 +5°C° 1.1 mm 3 mps 683 mmHg 90%
    14:00 +5°C° 0.9 mm 3 mps 683 mmHg 90%
    15:00 +5°C° 0.9 mm 3 mps 682 mmHg 91%
    16:00 +4°C° 0.9 mm 3 mps 682 mmHg 92%
    17:00 +4°C° 0.6 mm 3 mps 683 mmHg 93%
    18:00 +3°C° 0.6 mm 3 mps 683 mmHg 93%
    19:00 +3°C° 0.6 mm 3 mps 683 mmHg 94%
    20:00 +3°C° 0.5 mm 3 mps 683 mmHg 94%
    21:00 +3°C° 0.5 mm 3 mps 683 mmHg 94%
    22:00 +2°C° 0.5 mm 3 mps 683 mmHg 94%
    23:00 +3°C° 0.7 mm 2 mps 684 mmHg 94%

    Tomorrow, 23 October, Monday

    Time Temperature Precipitation Wind Pressure Humidity
    00:00 +3°C° 0.7 mm 2 mps 684 mmHg 94%
    01:00 +3°C° 0.7 mm 2 mps 684 mmHg 94%
    02:00 +3°C° 0.4 mm 2 mps 684 mmHg 95%
    03:00 +3°C° 0.4 mm 2 mps 684 mmHg 95%
    04:00 +2°C° 0.4 mm 2 mps 684 mmHg 95%
    05:00 +3°C° 0.5 mm 2 mps 684 mmHg 95%
    06:00 +3°C° 0.5 mm 2 mps 684 mmHg 95%
    07:00 +3°C° 0.5 mm 2 mps 684 mmHg 95%
    08:00 +3°C° 0.6 mm 2 mps 684 mmHg 94%
    09:00 +3°C° 0.6 mm 3 mps 685 mmHg 93%
    10:00 +4°C° 0.6 mm 3 mps 685 mmHg 92%
    11:00 +4°C° 0.6 mm 3 mps 685 mmHg 91%
    12:00 +4°C° 0.6 mm 3 mps 685 mmHg 91%
    13:00 +5°C° 0.6 mm 3 mps 685 mmHg 91%
    14:00 +4°C° 0.5 mm 3 mps 685 mmHg 91%
    15:00 +5°C° 0.5 mm 2 mps 685 mmHg 92%
    16:00 +5°C° 0.5 mm 2 mps 685 mmHg 92%
    17:00 +5°C° 0.8 mm 2 mps 686 mmHg 93%
    18:00 +5°C° 0.8 mm 2 mps 686 mmHg 94%
    19:00 +4°C° 0.8 mm 2 mps 686 mmHg 95%
    20:00 +4°C° 1.2 mm 2 mps 687 mmHg 95%
    21:00 +4°C° 1.2 mm 2 mps 687 mmHg 95%
    22:00 +4°C° 1.2 mm 2 mps 687 mmHg 95%
    23:00 +5°C° 1.3 mm 2 mps 687 mmHg 95%

    Day after tomorrow, 24 October, Tuesday

    Time Temperature Precipitation Wind Pressure Humidity
    00:00 +5°C° 1.3 mm 2 mps 687 mmHg 95%
    01:00 +5°C° 1.3 mm 2 mps 687 mmHg 95%
    02:00 +5°C° 0.5 mm 2 mps 688 mmHg 96%
    03:00 +5°C° 0.5 mm 2 mps 688 mmHg 96%
    04:00 +5°C° 0.5 mm 2 mps 688 mmHg 96%
    05:00 +5°C° 0.1 mm 2 mps 688 mmHg 96%
    06:00 +4°C° 0.1 mm 2 mps 688 mmHg 95%
    07:00 +4°C° 0.1 mm 2 mps 688 mmHg 95%
    08:00 +5°C° 0.2 mm 2 mps 688 mmHg 95%
    09:00 +6°C° 0.2 mm 2 mps 689 mmHg 94%
    10:00 +7°C° 0.2 mm 2 mps 689 mmHg 94%
    11:00 +8°C° 0.2 mm 2 mps 689 mmHg 94%
    12:00 +8°C° 0.2 mm 2 mps 689 mmHg 94%
    13:00 +9°C° 0.2 mm 2 mps 689 mmHg 94%
    14:00 +9°C° 0 mm 2 mps 689 mmHg 94%
    15:00 +9°C° 0 mm 2 mps 689 mmHg 95%
    16:00 +9°C° 0 mm 2 mps 689 mmHg 95%
    17:00 +8°C° 0 mm 2 mps 689 mmHg 96%
    18:00 +7°C° 0 mm 2 mps 689 mmHg 96%
    19:00 +6°C° 0 mm 2 mps 690 mmHg 97%
    20:00 +6°C° 0 mm 2 mps 690 mmHg 95%
    21:00 +5°C° 0 mm 2 mps 690 mmHg 94%
    22:00 +5°C° 0 mm 2 mps 690 mmHg 92%
    23:00 +5°C° 0 mm 2 mps 690 mmHg 90%

    25 October, Wednesday

    Time Temperature Precipitation Wind Pressure Humidity
    00:00 +5°C° 0 mm 2 mps 690 mmHg 87%
    01:00 +5°C° 0 mm 2 mps 690 mmHg 85%
    02:00 +5°C° 0 mm 2 mps 690 mmHg 83%
    03:00 +5°C° 0 mm 2 mps 690 mmHg 82%
    04:00 +5°C° 0 mm 2 mps 690 mmHg 80%
    05:00 +6°C° 0 mm 2 mps 690 mmHg 79%
    06:00 +6°C° 0 mm 2 mps 690 mmHg 78%
    07:00 +7°C° 0 mm 1 mps 690 mmHg 77%
    08:00 +9°C° 0 mm 1 mps 690 mmHg 80%
    09:00 +11°C° 0 mm 1 mps 690 mmHg 83%
    10:00 +13°C° 0 mm 1 mps 691 mmHg 86%
    11:00 +14°C° 0 mm 1 mps 691 mmHg 85%
    12:00 +14°C° 0 mm 0 mps 691 mmHg 83%
    13:00 +15°C° 0 mm 0 mps 691 mmHg 81%
    14:00 +14°C° 0 mm 0 mps 691 mmHg 83%
    15:00 +13°C° 0 mm 0 mps 691 mmHg 85%
    16:00 +13°C° 0 mm 0 mps 691 mmHg 87%
    17:00 +12°C° 0 mm 1 mps 691 mmHg 86%
    18:00 +11°C° 0 mm 1 mps 691 mmHg 86%
    19:00 +10°C° 0 mm 1 mps 691 mmHg 85%
    20:00 +9°C° 0 mm 1 mps 691 mmHg 82%
    21:00 +9°C° 0 mm 1 mps 691 mmHg 80%
    22:00 +9°C° 0 mm 1 mps 691 mmHg 78%
    23:00 +9°C° 0 mm 1 mps 691 mmHg 77%

    26 October, Thursday

    Time Temperature Precipitation Wind Pressure Humidity
    00:00 +9°C° 0 mm 1 mps 691 mmHg 75%
    01:00 +9°C° 0 mm 1 mps 691 mmHg 74%
    02:00 +9°C° 0 mm 1 mps 691 mmHg 74%
    03:00 +9°C° 0 mm 1 mps 691 mmHg 74%
    04:00 +9°C° 0 mm 1 mps 691 mmHg 74%
    05:00 +8°C° 0 mm 1 mps 691 mmHg 74%
    06:00 +8°C° 0 mm 1 mps 691 mmHg 74%
    07:00 +8°C° 0 mm 1 mps 691 mmHg 74%
    08:00 +10°C° 0 mm 1 mps 692 mmHg 76%
    09:00 +13°C° 0 mm 1 mps 692 mmHg 78%
    10:00 +15°C° 0 mm 1 mps 692 mmHg 79%
    11:00 +16°C° 0 mm 1 mps 692 mmHg 77%
    12:00 +16°C° 0 mm 0 mps 692 mmHg 75%
    13:00 +17°C° 0 mm 0 mps 692 mmHg 73%
    14:00 +16°C° 0 mm 0 mps 692 mmHg 76%
    15:00 +15°C° 0 mm 0 mps 691 mmHg 78%
    16:00 +14°C° 0 mm 0 mps 691 mmHg 80%
    17:00 +14°C° 0 mm 1 mps 691 mmHg 80%
    18:00 +12°C° 0 mm 1 mps 691 mmHg 81%
    19:00 +11°C° 0 mm 1 mps 690 mmHg 81%
    20:00 +10°C° 0 mm 1 mps 690 mmHg 79%
    21:00 +10°C° 0 mm 1 mps 690 mmHg 76%
    22:00 +10°C° 0 mm 1 mps 690 mmHg 74%
    23:00 +9°C° 0 mm 2 mps 690 mmHg 73%

    27 October, Friday

    Time Temperature Precipitation Wind Pressure Humidity
    00:00 +9°C° 0 mm 2 mps 690 mmHg 71%
    01:00 +9°C° 0 mm 2 mps 690 mmHg 70%
    02:00 +9°C° 0 mm 2 mps 689 mmHg 70%
    03:00 +9°C° 0 mm 2 mps 689 mmHg 70%
    04:00 +9°C° 0 mm 2 mps 689 mmHg 70%
    05:00 +9°C° 0 mm 2 mps 689 mmHg 71%
    06:00 +9°C° 0 mm 2 mps 689 mmHg 72%
    07:00 +8°C° 0 mm 2 mps 688 mmHg 73%
    08:00 +12°C° 0 mm 2 mps 689 mmHg 74%
    09:00 +14°C° 0 mm 2 mps 689 mmHg 75%
    10:00 +16°C° 0 mm 2 mps 689 mmHg 76%
    11:00 +16°C° 0 mm 2 mps 689 mmHg 74%
    12:00 +17°C° 0 mm 2 mps 688 mmHg 72%
    13:00 +18°C° 0 mm 2 mps 688 mmHg 70%
    14:00 +17°C° 0 mm 2 mps 687 mmHg 73%
    15:00 +16°C° 0 mm 2 mps 687 mmHg 76%
    16:00 +15°C° 0 mm 2 mps 686 mmHg 79%
    17:00 +13°C° 0.1 mm 2 mps 686 mmHg 82%
    18:00 +12°C° 0.1 mm 2 mps 686 mmHg 86%
    19:00 +10°C° 0.1 mm 2 mps 686 mmHg 90%
    20:00 +10°C° 0.7 mm 2 mps 686 mmHg 91%
    21:00 +10°C° 0.7 mm 2 mps 686 mmHg 92%
    22:00 +10°C° 0.7 mm 2 mps 686 mmHg 94%
    23:00 +10°C° 1.2 mm 2 mps 686 mmHg 94%
    Show more